Regional Weather Roundup
Issued by NWS Grand Forks, ND

Home | Current Version | Previous Version | Graphics & Text | Print | Product List | Glossary On
Versions: 1 2 3 4 5 6 7 8 9 10 11 12 13 14 15 16 17 18 19 20 21 22 23 24 25 26 27 28 29 30 31 32 33 34 35 36 37 38 39 40 41 42 43 44 45 46 47 48 49 50
000
ASUS43 KFGF 182231
RWRFGF
PRAIRIE TO PINES  WEATHER ROUNDUP
NATIONAL WEATHER SERVICE EASTERN NORTH DAKOTA/GRAND FORKS ND
500 PM CDT SAT APR 18 2015

 **SATELLITE DATA USED TO AUGMENT SKY COVER AT AUTOMATED STATIONS**
 *****  WEATHER ACROSS EASTERN NORTH DAKOTA  *****

CITY           SKY/WX    TMP DP  RH WIND       PRES   REMARKS
GRAND FORKS    CLOUDY    69  25  19 SE7       29.92F
GRAND FRKS AFB MOSUNNY   68  27  21 S9        29.92F
GRAND FRKS NWS   N/A     66 N/A N/A S3          N/A
DEVILS LAKE    PTSUNNY   64  28  25 S12       29.90F
FARGO          PTSUNNY   73  28  18 E10       29.89F
WAHPETON ARPT  MOCLDY    73  18  12 SE15      29.88F
$$

 ***** WEATHER ACROSS CENTRAL AND WESTERN NORTH DAKOTA  *****

CITY           SKY/WX    TMP DP  RH WIND       PRES   REMARKS
BISMARCK       CLOUDY    62  30  29 S9G17     29.93R
MINOT          PTSUNNY   71  26  18 S6        29.81F
JAMESTOWN      CLOUDY    69  24  18 S12       29.88F
MINOT AFB      PTSUNNY   70  32  24 NW25G32   29.81F
GARRISON         N/A     72  30  21 S12       29.84F
WILLISTON      CLOUDY    59  37  44 N18       29.94R
DICKINSON      CLOUDY    61  37  41 W20G35    29.86F
HETTINGER      LGT RAIN  51  39  63 SE13      29.93F
$$

 *****  OTHER AIRPORT OBSERVATIONS IN OUR AREA  *****

CITY           SKY/WX    TMP DP  RH WIND       PRES   REMARKS
WALHALLA       FAIR      68  28  22 S17G26    29.90F
GRAFTON AIRPOR FAIR      68  25  19 SE10      29.92F
VALLEY CITY AR MOCLDY    68  27  21 S13       29.89F
CANDO          FAIR      68  28  22 S22       29.88F
CAVALIER APRT  FAIR      68  28  22 S13       29.91F
GWINNER        CLEAR     72  30  21 SE13      29.88F
SHEYENNE NWR     N/A     75  24  15 S10       29.95S
ROLLA          FAIR      68  27  21 S18G26    29.86F
 ***** THE ABOVE OBSERVATIONS ARE NON NWS ARE NOT QUALITY
       CONTROLLED AND MAY MIS-REPORT RAIN FOR SNOW...
$$

  *****  WEATHER ACROSS NORTHERN MINNESOTA  *****

CITY           SKY/WX    TMP DP  RH WIND       PRES   REMARKS
FLAG ISLAND    MOSUNNY   59  23  25 E7        29.98F
WARROAD        PTSUNNY   54  32  43 E7        29.99F
ROSEAU         MOSUNNY   64  18  16 E5G13     29.97F
HALLOCK        MOSUNNY   68  18  14 S13       29.92F
THF RVR FALLS  CLOUDY    66  27  22 SE7       29.94F
BAUDETTE       PTSUNNY   65  19  17 SE7       29.99F
WASKISH        PTSUNNY   64  28  25 SE10      29.99F
CROOKSTON      CLOUDY    68  28  22 SE8       29.93F
STEPHEN NDAWN    N/A     66  21  18 S10         N/A
GREENBUSH NDAW   N/A     66  25  20 SE9         N/A
$$
  *****  WEATHER ACROSS CENTRAL AND WEST MINNESOTA  *****

CITY           SKY/WX    TMP DP  RH WIND       PRES   REMARKS
FOSSTON        CLOUDY    66  27  22 SE8       29.95F
BEMIDJI        MOSUNNY   62  28  26 SE12G17   29.97F
PARK RAPIDS    MOSUNNY   68  28  22 SE12      29.96F
ELBOW LAKE     FAIR      71  29  21 SE12G22   29.89F
WADENA         MOSUNNY   68  34  28 E12G17    29.94F
DETROIT LAKES  PTSUNNY   68  32  26 SE9       29.94F
MOORHEAD       PTSUNNY   72  27  18 SE9       29.90F
FERGUS FALLS   MOSUNNY   70  19  14 SE12G20   29.90F
MORRIS MN      PTSUNNY   72  28  20 E17G23    29.88F
STAPLES        SUNNY     66  28  24 E6G17     29.95F
$$
  *****  WEATHER ELSEWHERE ACROSS MINNESOTA  *****

CITY           SKY/WX    TMP DP  RH WIND       PRES   REMARKS
DULUTH         SUNNY     48  31  51 E17G24    30.09F
INTRNTL FALLS  MOSUNNY   61  20  20 SE12G22   30.04S
ELY            SUNNY     55   9  15 SE15      30.10S
CLOQUET        SUNNY     46  30  53 E17G24    30.08F
WHEATON        CLOUDY    70  30  23 E16G22    29.89S
BRAINERD       SUNNY     66  30  26 SE12G18   29.99F
HIBBING        SUNNY     60  20  21 SE15G22   30.06F
ALEXANDRIA     MOSUNNY   70  27  20 SE16G25   29.94F
SAINT CLOUD    PTSUNNY   69  31  24 E12       29.94F
MINNEAPOLIS    CLOUDY    71  34  25 NE15      29.94F
$$

  *****  WEATHER ACROSS SOUTH DAKOTA  *****

CITY           SKY/WX    TMP DP  RH WIND       PRES   REMARKS
SIOUX FALLS    LGT RAIN  58  55  90 SE9       29.86S
BROOKINGS      CLOUDY    61  55  82 SE13      29.88F
WATERTOWN      CLOUDY    68  36  30 E6        29.86F
HURON          RAIN      54  53  97 SE8       29.87F FOG
SISSETON         N/A     73  25  16 S16       29.86F
ABERDEEN       CLOUDY    70  31  23 SE3       29.87F
MITCHELL       CLOUDY    57  55  93 E7        29.85F FOG
PIERRE         RAIN      51  48  89 N12       29.86F FOG
MOBRIDGE       LGT RAIN  58  40  51 NW7       29.89F
RAPID CITY     CLOUDY    47  45  93 N9        29.91F
$$

  *****  SOME WEATHER IN NEARBY STATES *****

CITY           SKY/WX    TMP DP  RH WIND       PRES   REMARKS
GLASGOW MT     PTSUNNY   55  29  36 NW25G32   30.07S
GREAT FALLS MT PTSUNNY   44  34  67 W5        30.28F
CHEYENNE WY    MOSUNNY   44  34  67 N13       29.89F
SCOTTSBLUFF NE MOSUNNY   60  32  34 N6        29.86S
OMAHA NE       LGT RAIN  61  58  90 E10       29.82F
DES MOINES IA  CLOUDY    64  59  83 W3        29.86F
DAVENPORT IA   PTSUNNY   72  51  47 E17       29.92F
CHICAGO IL     PTSUNNY   54  36  50 NE13      30.03F
EAU CLAIRE WI  PTSUNNY   68  32  26 SE9       30.00F
LA CROSSE WI   MOSUNNY   72  37  28 SE14      29.97F
$$

  *****  SOME NATIONAL WEATHER *****

CITY           SKY/WX    TMP DP  RH WIND       PRES   REMARKS
LA GUARDIA NY  MOSUNNY   73  41  31 S13G21    29.85F
RALEIGH NC     CLOUDY    76  62  62 SE3       29.95R
ATLANTA GA     CLOUDY    71  65  81 E5        29.92F
NEW ORLEANS LA LGT RAIN  74  70  87 SW6       29.86R
OKLAHOMA CITY  PTSUNNY   77  58  51 S12       29.76F
ALBUQUERQUE NM MOSUNNY   63  22  20 NW14G24   29.92F
SALT LAKE CITY MOSUNNY   65  32  29 NW14G20   29.99F
LOS ANGELES CA SUNNY     68  55  63 W14       29.96F
BOISE ID       SUNNY     72  26  18 NW23G29   30.06F
SEATTLE WA     MOSUNNY   65  42  43 NW12      30.31F
$$

*** WEATHER ACROSS MANITOBA...SASKATCHEWAN AND ONTARIO ***
                ***ONTARIO***

CITY           SKY/WX    TMP DP  RH WIND       PRES   REMARKS
GERALDTON      SUNNY     48  25  40 VRB2      30.24S
THUNDER BAY    MOSUNNY   50  25  37 E13       30.24S
SIOUX LOOKOUT  PTSUNNY   57  23  26 SE8       30.09F
TORONTO        MOSUNNY   61  30  31 N15G21    30.12R
BIG TROUT LK   SUNNY     48  19  32 SE6       30.19F
PICKLE LAKE    MOSUNNY   52  19  28 SE9G17    30.15F
DRYDEN         MOSUNNY   57  16  19 SE15      30.08F
KENORA         PTSUNNY   59  12  15 SE14G24   30.03F
$$
                *** MANITOBA***

CITY           SKY/WX    TMP DP  RH WIND       PRES   REMARKS
BRANDON        CLOUDY    70  36  28 SW15G22   29.81F
DAUPHIN        CLOUDY    59  41  51 W21       29.85R
ISLAND LAKE    CLOUDY    50  27  40 SE9       30.00F
PILOT MOUND      N/A     70  25  18 S21         N/A
THE PAS        CLOUDY    50  36  57 N5        29.83S
THOMPSON       LGT RAIN  39  37  93 E7        29.98F
WINNIPEG       PTSUNNY   66  23  19 SE21G26   29.91F
LYNN LAKE      LGT RAIN  39  37  93 NE5       29.97R FOG
CHURCHILL      LGT SNOW  23  18  80 E12       30.28S WCI  12
GILLAM         LGT SNOW  34  34 100 E3        30.12S
$$
                ***SASKATCHEWAN***

CITY           SKY/WX    TMP DP  RH WIND       PRES   REMARKS
ESTEVAN        CLOUDY    55  39  54 NW17      29.92S
KINDERSLEY     PTSUNNY   48  27  43 NW23G36   30.11R
LLOYDMINSTER   PTSUNNY   46  32  57 NW22G31   30.08F
PRINCE ALBERT  PTSUNNY   50  34  53 NW17G25   29.93R
REGINA         PTSUNNY   54  32  43 NW26G38   29.99R
YORKTON        MOSUNNY   59  36  41 NW21G26   29.88R
N. BATTLEFORD  CLOUDY    45  34  65 NW24G33   30.04S
LA RONGE       LGT RAIN  41  41 100 W5        29.92R FOG
SASKATOON      CLOUDY    48  32  53 NW22G30   30.01R
SWIFT CURRENT  PTSUNNY   48  21  34 NW25G39   30.06S
$$
NOTE: THESE ARE AUTOMATED STATIONS WITH LIMITED QUALITY CONTROL
      "FAIR" INDICATES FEW OR NO CLOUDS BELOW 12,000 FEET WITH NO
      SIGNIFICANT WEATHER AND/OR OBSTRUCTIONS TO VISIBILITY.
      SKY/WX - SKY CONDITION AND SIGNIFICANT WEATHER.
      TMP - AIR TEMPERATURE.    DP   - DEWPOINT TEMPERATURE.
      RH  - RELATIVE HUMIDITY.  PRES - PRESSURE.
      HX  - HEAT INDEX.         WCI  - WIND CHILL INDEX.
$



USA.gov is the U.S. government's official web portal to all federal, state and local government web resources and services.